Location: Casilda
(33.0440°S, 61.1680°W)
Time: 17:48:06
(UTC-03:00)

ISS - Pass Details

Date: 22 March 2023
Orbit: 413 x 421 km, 51.6° (Epoch: 30 March)

Event Time Altitude Azimuth Distance (km) Brightness Sun altitude
Exits shadow 06:05:09 28° 281° (W) 821 -2.9 -14.2°
Maximum altitude 06:06:34 49° 221° (SW) 561 -3.4 -13.9°
Drops below altitude 10° 06:09:55 10° 145° (SE) 1,530 -0.3 -13.2°
Sets 06:12:05 0° 139° (SE) 2,403 0.9 -12.8°
